KNE631 OPKC-VGHS

Flight info

Callsign KNE631
Flight time 3h 12m
Altitude 37000
Route PUNAM R462 RAMSA Z15 JDP W58 JJP J20 LKN W45 BODOG A201 RAJ G463 IDLOX
Aircraft A320/M-SDE3FGHIRWY/LB1

Departure

Time 2026-04-29 13:00
Airport Jinnah International Airport (OPKC)

Arrival

Time 2026-04-29 16:12
Airport Hazrat Shahjalal International Airport (VGHS)
Time Latitude Longitude Altitude Speed Heading
2026-04-29 12:32 24.90223 67.17006 101 ft 0 kts 282°
2026-04-29 12:50 24.90219 67.17030 102 ft 4 kts 281°
2026-04-29 12:50 24.90213 67.17060 101 ft 4 kts 282°
2026-04-29 12:50 24.90209 67.17079 99 ft 2 kts 310°
2026-04-29 12:50 24.90200 67.17087 101 ft 2 kts
2026-04-29 12:51 24.90189 67.17086 101 ft 2 kts 17°
2026-04-29 12:51 24.90178 67.17082 101 ft 1 kts 23°
2026-04-29 12:54 24.90183 67.17084 98 ft 4 kts 23°
2026-04-29 12:54 24.90219 67.17101 100 ft 6 kts 20°
2026-04-29 12:54 24.90253 67.17108 101 ft 5 kts
2026-04-29 12:54 24.90298 67.17102 100 ft 6 kts 346°
2026-04-29 12:55 24.90342 67.17088 101 ft 8 kts 344°
2026-04-29 12:55 24.90391 67.17073 101 ft 7 kts 344°
2026-04-29 12:55 24.90431 67.17061 101 ft 5 kts 344°
2026-04-29 12:55 24.90471 67.17048 101 ft 7 kts 344°
2026-04-29 12:56 24.90512 67.17036 102 ft 6 kts 344°
2026-04-29 12:56 24.90553 67.17043 102 ft 7 kts 38°
2026-04-29 12:56 24.90577 67.17093 102 ft 9 kts 74°
2026-04-29 12:56 24.90595 67.17161 102 ft 9 kts 73°
2026-04-29 12:57 24.90612 67.17225 102 ft 9 kts 74°
2026-04-29 12:57 24.90629 67.17292 101 ft 10 kts 74°
2026-04-29 12:57 24.90648 67.17361 102 ft 10 kts 70°
2026-04-29 12:57 24.90681 67.17418 102 ft 9 kts 44°
2026-04-29 12:58 24.90743 67.17460 103 ft 10 kts 28°
2026-04-29 12:58 24.90796 67.17488 105 ft 7 kts 19°
2026-04-29 12:58 24.90843 67.17487 106 ft 7 kts 346°
2026-04-29 12:58 24.90868 67.17461 107 ft 4 kts 285°
2026-04-29 12:59 24.90864 67.17435 107 ft 0 kts 255°
2026-04-29 12:59 24.90852 67.17389 106 ft 25 kts 254°
2026-04-29 13:00 24.90736 67.16930 106 ft 96 kts 254°
2026-04-29 13:00 24.90501 67.16013 106 ft 150 kts 254°
2026-04-29 13:00 24.90202 67.14804 421 ft 171 kts 254°
2026-04-29 13:00 24.89892 67.13528 1130 ft 171 kts 250°
2026-04-29 13:01 24.89241 67.12443 1889 ft 174 kts 223°
2026-04-29 13:01 24.88125 67.11837 2267 ft 193 kts 192°
2026-04-29 13:01 24.86735 67.12055 2464 ft 223 kts 156°
2026-04-29 13:01 24.85603 67.13350 2706 ft 253 kts 114°
2026-04-29 13:02 24.85432 67.15294 3287 ft 264 kts 76°
2026-04-29 13:02 24.86333 67.17028 3958 ft 265 kts 41°
2026-04-29 13:02 24.87818 67.18222 4672 ft 266 kts 27°
2026-04-29 13:02 24.89455 67.19160 5452 ft 266 kts 22°
2026-04-29 13:03 24.91125 67.20050 6204 ft 268 kts 24°
2026-04-29 13:03 24.92583 67.21354 6894 ft 278 kts 53°
2026-04-29 13:03 24.93345 67.23360 7386 ft 296 kts 73°
2026-04-29 13:03 24.93870 67.25596 8005 ft 305 kts 75°
2026-04-29 13:04 24.94361 67.27876 8756 ft 308 kts 75°
2026-04-29 13:04 24.94847 67.30193 9546 ft 311 kts 75°
2026-04-29 13:04 24.95345 67.32547 10028 ft 325 kts 74°
2026-04-29 13:04 24.95888 67.35057 10219 ft 348 kts 74°
2026-04-29 13:05 24.96476 67.37734 10350 ft 371 kts 74°
2026-04-29 13:05 24.97096 67.40552 10709 ft 383 kts 74°
2026-04-29 13:05 24.97728 67.43429 11293 ft 388 kts 74°
2026-04-29 13:05 24.98367 67.46339 11915 ft 392 kts 74°
2026-04-29 13:06 24.99011 67.49273 12543 ft 396 kts 74°
2026-04-29 13:06 24.99659 67.52233 13188 ft 399 kts 73°
2026-04-29 13:06 25.00312 67.55218 13774 ft 403 kts 73°
2026-04-29 13:06 25.00970 67.58235 14293 ft 407 kts 73°
2026-04-29 13:07 25.01636 67.61280 14805 ft 411 kts 73°
2026-04-29 13:07 25.02329 67.64357 15299 ft 415 kts 72°
2026-04-29 13:07 25.03065 67.67449 15798 ft 420 kts 72°
2026-04-29 13:07 25.03831 67.70574 16298 ft 424 kts 71°
2026-04-29 13:08 25.04611 67.73725 16785 ft 428 kts 71°
2026-04-29 13:08 25.05397 67.76908 17275 ft 433 kts 71°
2026-04-29 13:08 25.06185 67.80130 17767 ft 437 kts 72°
2026-04-29 13:08 25.06969 67.83381 18213 ft 441 kts 72°
2026-04-29 13:09 25.07755 67.86669 18650 ft 445 kts 72°
2026-04-29 13:09 25.08543 67.89981 19082 ft 448 kts 72°
2026-04-29 13:09 25.09339 67.93327 19509 ft 452 kts 72°
2026-04-29 13:09 25.10138 67.96675 19930 ft 456 kts 71°
2026-04-29 13:10 25.10952 68.00088 20366 ft 459 kts 72°
2026-04-29 13:10 25.11765 68.03501 20785 ft 462 kts 72°
2026-04-29 13:10 25.12581 68.06934 21217 ft 464 kts 72°
2026-04-29 13:10 25.13404 68.10388 21637 ft 467 kts 72°
2026-04-29 13:11 25.14223 68.13824 22044 ft 470 kts 71°
2026-04-29 13:11 25.15057 68.17317 22445 ft 472 kts 71°
2026-04-29 13:11 25.15907 68.20885 22845 ft 475 kts 72°
2026-04-29 13:11 25.16746 68.24419 23236 ft 477 kts 72°
2026-04-29 13:12 25.17576 68.27922 23551 ft 480 kts 72°
2026-04-29 13:12 25.18422 68.31494 23873 ft 482 kts 71°
2026-04-29 13:12 25.19270 68.35074 24194 ft 483 kts 71°
2026-04-29 13:12 25.20119 68.38670 24517 ft 485 kts 71°
2026-04-29 13:13 25.20971 68.42288 24826 ft 487 kts 71°
2026-04-29 13:13 25.21820 68.45910 25126 ft 489 kts 71°
2026-04-29 13:13 25.22672 68.49557 25418 ft 491 kts 71°
2026-04-29 13:13 25.23528 68.53208 25707 ft 493 kts 71°
2026-04-29 13:14 25.24391 68.56882 26003 ft 494 kts 71°
2026-04-29 13:14 25.25268 68.60613 26282 ft 496 kts 71°
2026-04-29 13:14 25.26136 68.64307 26540 ft 498 kts 71°
2026-04-29 13:14 25.26992 68.67966 26795 ft 500 kts 71°
2026-04-29 13:15 25.27872 68.71741 27042 ft 501 kts 70°
2026-04-29 13:15 25.28730 68.75423 27284 ft 503 kts 70°
2026-04-29 13:15 25.29602 68.79174 27501 ft 505 kts 70°
2026-04-29 13:15 25.30477 68.82934 27724 ft 506 kts 70°
2026-04-29 13:16 25.31363 68.86757 27931 ft 508 kts 70°
2026-04-29 13:16 25.32228 68.90490 28157 ft 508 kts 70°
2026-04-29 13:16 25.33104 68.94271 28450 ft 507 kts 70°
2026-04-29 13:16 25.33990 68.98093 28759 ft 506 kts 70°
2026-04-29 13:17 25.34849 69.01810 29040 ft 506 kts 70°
2026-04-29 13:17 25.35716 69.05574 29330 ft 505 kts 70°
2026-04-29 13:17 25.36581 69.09335 29620 ft 504 kts 70°
2026-04-29 13:17 25.37441 69.13079 29870 ft 504 kts 70°
2026-04-29 13:18 25.38306 69.16846 30099 ft 504 kts 70°
2026-04-29 13:18 25.39168 69.20588 30317 ft 504 kts 70°
2026-04-29 13:18 25.40032 69.24350 30525 ft 504 kts 70°
2026-04-29 13:18 25.40891 69.28100 30747 ft 504 kts 70°
2026-04-29 13:19 25.41751 69.31857 30969 ft 503 kts 70°
2026-04-29 13:19 25.42611 69.35615 31196 ft 503 kts 70°
2026-04-29 13:19 25.43467 69.39363 31412 ft 503 kts 69°
2026-04-29 13:19 25.44321 69.43118 31632 ft 503 kts 69°
2026-04-29 13:20 25.44898 69.45656 31791 ft 503 kts 69°
2026-04-29 13:20 25.45747 69.49403 32006 ft 503 kts 69°
2026-04-29 13:20 25.46599 69.53159 32219 ft 503 kts 69°
2026-04-29 13:20 25.47728 69.58132 32512 ft 503 kts 69°
2026-04-29 13:21 25.48291 69.60616 32659 ft 503 kts 69°
2026-04-29 13:21 25.49139 69.64360 32880 ft 503 kts 69°
2026-04-29 13:21 25.49987 69.68124 33100 ft 503 kts 69°
2026-04-29 13:21 25.50828 69.71876 33316 ft 504 kts 70°
2026-04-29 13:22 25.51362 69.75733 33542 ft 512 kts 80°
2026-04-29 13:22 25.51347 69.79714 33738 ft 521 kts 90°
2026-04-29 13:22 25.50771 69.83687 33922 ft 527 kts 98°
2026-04-29 13:22 25.49999 69.87656 34106 ft 527 kts 97°
2026-04-29 13:23 25.49238 69.91616 34295 ft 526 kts 97°
2026-04-29 13:23 25.48492 69.95561 34492 ft 526 kts 97°
2026-04-29 13:23 25.47747 69.99539 34674 ft 525 kts 97°
2026-04-29 13:23 25.47007 70.03492 34859 ft 525 kts 97°
2026-04-29 13:24 25.46260 70.07449 35045 ft 525 kts 98°
2026-04-29 13:24 25.45509 70.11393 35227 ft 524 kts 98°
2026-04-29 13:24 25.44751 70.15340 35412 ft 524 kts 98°
2026-04-29 13:24 25.43991 70.19277 35590 ft 523 kts 98°
2026-04-29 13:25 25.43232 70.23214 35760 ft 523 kts 98°
2026-04-29 13:25 25.41714 70.31077 36088 ft 522 kts 98°
2026-04-29 13:25 25.40968 70.34953 36251 ft 522 kts 98°
2026-04-29 13:26 25.40214 70.38870 36412 ft 521 kts 98°
2026-04-29 13:26 25.39446 70.42846 36581 ft 521 kts 98°
2026-04-29 13:26 25.37937 70.50630 36647 ft 522 kts 98°
2026-04-29 13:27 25.36411 70.58493 36645 ft 522 kts 98°
2026-04-29 13:27 25.34876 70.66341 36651 ft 522 kts 98°
2026-04-29 13:28 25.33336 70.74189 36648 ft 522 kts 99°
2026-04-29 13:28 25.31667 70.82005 36655 ft 523 kts 101°
2026-04-29 13:29 25.29839 70.89786 36655 ft 523 kts 101°
2026-04-29 13:29 25.28005 70.97571 36654 ft 523 kts 101°
2026-04-29 13:30 25.26224 71.05375 36658 ft 523 kts 101°
2026-04-29 13:30 25.24462 71.13175 36657 ft 523 kts 101°
2026-04-29 13:31 25.22674 71.20970 36661 ft 524 kts 101°
2026-04-29 13:31 25.21683 71.28833 36665 ft 512 kts 83°
2026-04-29 13:32 25.22030 71.32705 36673 ft 503 kts 72°
2026-04-29 13:32 25.22912 71.36405 36676 ft 493 kts 63°
2026-04-29 13:32 25.26024 71.42969 36678 ft 476 kts 48°
2026-04-29 13:33 25.29760 71.49004 36682 ft 476 kts 48°
2026-04-29 13:33 25.33492 71.55057 36686 ft 476 kts 48°
2026-04-29 13:34 25.37213 71.61117 36694 ft 477 kts 48°
2026-04-29 13:34 25.40936 71.67189 36697 ft 477 kts 48°
2026-04-29 13:35 25.44663 71.73259 36700 ft 477 kts 47°
2026-04-29 13:35 25.48399 71.79337 36696 ft 478 kts 47°
2026-04-29 13:36 25.52102 71.85388 36696 ft 478 kts 48°
2026-04-29 13:36 25.55830 71.91497 36694 ft 479 kts 47°
2026-04-29 13:37 25.59558 71.97611 36692 ft 479 kts 47°
2026-04-29 13:37 25.63298 72.03738 36690 ft 480 kts 47°
2026-04-29 13:38 25.67035 72.09861 36686 ft 480 kts 47°
2026-04-29 13:38 25.70784 72.15988 36693 ft 480 kts 47°
2026-04-29 13:39 25.74562 72.22089 36696 ft 480 kts 47°
2026-04-29 13:39 25.78340 72.28186 36690 ft 480 kts 47°
2026-04-29 13:40 25.82110 72.34305 36694 ft 480 kts 47°
2026-04-29 13:40 25.85885 72.40426 36692 ft 480 kts 47°
2026-04-29 13:41 25.89652 72.46542 36693 ft 481 kts 47°
2026-04-29 13:41 25.93431 72.52692 36690 ft 481 kts 47°
2026-04-29 13:42 25.97196 72.58839 36694 ft 481 kts 47°
2026-04-29 13:42 26.00963 72.64986 36691 ft 481 kts 47°
2026-04-29 13:43 26.04734 72.71143 36692 ft 482 kts 47°
2026-04-29 13:43 26.08235 72.77524 36687 ft 497 kts 62°
2026-04-29 13:44 26.09088 72.81319 36692 ft 513 kts 79°
2026-04-29 13:44 26.08983 72.85321 36686 ft 525 kts 97°
2026-04-29 13:44 26.07868 72.89206 36676 ft 532 kts 114°
2026-04-29 13:44 26.06168 72.92873 36668 ft 534 kts 116°
2026-04-29 13:45 26.02691 73.00184 36656 ft 536 kts 116°
2026-04-29 13:45 25.99180 73.07518 36667 ft 538 kts 116°
2026-04-29 13:46 25.92494 73.21580 36673 ft 539 kts 116°
2026-04-29 13:47 25.88988 73.28942 36691 ft 539 kts 116°
2026-04-29 13:47 25.85467 73.36305 36695 ft 539 kts 116°
2026-04-29 13:48 25.81945 73.43660 36701 ft 540 kts 116°
2026-04-29 13:48 25.78424 73.51008 36711 ft 540 kts 116°
2026-04-29 13:49 25.74899 73.58363 36716 ft 539 kts 116°
2026-04-29 13:49 25.71376 73.65702 36721 ft 539 kts 116°
2026-04-29 13:50 25.67843 73.73025 36731 ft 539 kts 116°
2026-04-29 13:50 25.64307 73.80336 36737 ft 539 kts 116°
2026-04-29 13:51 25.60758 73.87679 36743 ft 539 kts 116°
2026-04-29 13:51 25.57221 73.95008 36751 ft 539 kts 116°
2026-04-29 13:52 25.53705 74.02257 36724 ft 523 kts 116°
2026-04-29 13:52 25.52001 74.05755 36729 ft 510 kts 116°
2026-04-29 13:52 25.50327 74.09195 36738 ft 505 kts 115°
2026-04-29 13:53 25.47013 74.16015 36731 ft 502 kts 115°
2026-04-29 13:53 25.43704 74.22817 36736 ft 501 kts 116°
2026-04-29 13:54 25.40399 74.29597 36728 ft 501 kts 115°
2026-04-29 13:54 25.37095 74.36375 36730 ft 500 kts 116°
2026-04-29 13:55 25.33786 74.43137 36729 ft 500 kts 116°
2026-04-29 13:55 25.30473 74.49901 36736 ft 500 kts 116°
2026-04-29 13:56 25.27161 74.56654 36736 ft 500 kts 116°
2026-04-29 13:56 25.23836 74.63411 36740 ft 500 kts 116°
2026-04-29 13:57 25.20516 74.70164 36745 ft 500 kts 116°
2026-04-29 13:57 25.17199 74.76912 36744 ft 500 kts 116°
2026-04-29 13:58 25.13875 74.83650 36750 ft 500 kts 116°
2026-04-29 13:58 25.10542 74.90379 36754 ft 500 kts 116°
2026-04-29 13:59 25.07212 74.97106 36760 ft 500 kts 116°
2026-04-29 13:59 25.03877 75.03826 36760 ft 499 kts 116°
2026-04-29 14:00 25.00550 75.10533 36759 ft 498 kts 116°
2026-04-29 14:00 24.97157 75.17205 36761 ft 499 kts 117°
2026-04-29 14:01 24.93639 75.23796 36761 ft 499 kts 118°
2026-04-29 14:01 24.90109 75.30374 36763 ft 499 kts 118°
2026-04-29 14:02 24.86611 75.36969 36764 ft 498 kts 117°
2026-04-29 14:02 24.83121 75.43569 36767 ft 499 kts 117°
2026-04-29 14:03 24.79623 75.50160 36766 ft 499 kts 117°
2026-04-29 14:03 24.76116 75.56753 36762 ft 499 kts 117°
2026-04-29 14:04 24.72616 75.63344 36761 ft 499 kts 117°
2026-04-29 14:04 24.69121 75.69926 36759 ft 498 kts 117°
2026-04-29 14:05 24.65610 75.76497 36762 ft 499 kts 119°
2026-04-29 14:05 24.61281 75.82471 36754 ft 501 kts 136°
2026-04-29 14:06 24.58519 75.84774 36760 ft 497 kts 154°
2026-04-29 14:06 24.55351 75.86192 36774 ft 489 kts 168°
2026-04-29 14:06 24.48785 75.88025 36768 ft 487 kts 171°
2026-04-29 14:07 24.42185 75.89786 36755 ft 493 kts 171°
2026-04-29 14:07 24.35440 75.91564 36755 ft 503 kts 171°
2026-04-29 14:08 24.28563 75.93359 36755 ft 513 kts 171°
2026-04-29 14:08 24.21556 75.95171 36748 ft 521 kts 171°
2026-04-29 14:09 24.14514 75.96979 36748 ft 524 kts 171°
2026-04-29 14:09 24.07405 75.98796 36747 ft 524 kts 171°
2026-04-29 14:10 24.00309 76.00604 36748 ft 523 kts 171°
2026-04-29 14:10 23.93217 76.02405 36750 ft 523 kts 171°
2026-04-29 14:11 23.86121 76.04201 36757 ft 523 kts 171°
2026-04-29 14:11 23.79025 76.05991 36765 ft 523 kts 171°
2026-04-29 14:12 23.71935 76.07775 36767 ft 523 kts 171°
2026-04-29 14:12 23.64846 76.09552 36773 ft 522 kts 170°
2026-04-29 14:13 23.57765 76.11323 36773 ft 522 kts 171°
2026-04-29 14:13 23.50695 76.13089 36781 ft 521 kts 170°
2026-04-29 14:14 23.43653 76.15000 36780 ft 524 kts 162°
2026-04-29 14:14 23.40329 76.16635 36777 ft 526 kts 151°
2026-04-29 14:14 23.37296 76.18870 36778 ft 527 kts 140°
2026-04-29 14:15 23.32395 76.24726 36772 ft 523 kts 120°
2026-04-29 14:15 23.29420 76.31836 36768 ft 513 kts 100°
2026-04-29 14:16 23.28609 76.39429 36766 ft 501 kts 84°
2026-04-29 14:16 23.28610 76.47015 36769 ft 502 kts 84°
2026-04-29 14:17 23.28613 76.54616 36769 ft 503 kts 84°
2026-04-29 14:17 23.28605 76.62223 36773 ft 503 kts 84°
2026-04-29 14:18 23.28589 76.69834 36778 ft 503 kts 84°
2026-04-29 14:18 23.28569 76.77441 36780 ft 503 kts 84°
2026-04-29 14:19 23.28545 76.85053 36782 ft 504 kts 84°
2026-04-29 14:19 23.28528 76.92675 36781 ft 504 kts 84°
2026-04-29 14:20 23.28501 77.00302 36786 ft 505 kts 84°
2026-04-29 14:20 23.28461 77.07920 36784 ft 505 kts 84°
2026-04-29 14:21 23.28425 77.15563 36780 ft 504 kts 84°
2026-04-29 14:21 23.28391 77.23188 36777 ft 504 kts 84°
2026-04-29 14:22 23.28353 77.30787 36777 ft 503 kts 85°
2026-04-29 14:22 23.28240 77.38411 36776 ft 504 kts 86°
2026-04-29 14:23 23.27905 77.46029 36773 ft 505 kts 88°
2026-04-29 14:23 23.27506 77.53657 36772 ft 504 kts 88°
2026-04-29 14:24 23.27162 77.61268 36770 ft 504 kts 87°
2026-04-29 14:24 23.26857 77.68881 36765 ft 504 kts 87°
2026-04-29 14:25 23.26546 77.76484 36765 ft 503 kts 87°
2026-04-29 14:25 23.26225 77.84088 36763 ft 504 kts 87°
2026-04-29 14:26 23.25896 77.91686 36763 ft 504 kts 87°
2026-04-29 14:26 23.25558 77.99310 36767 ft 504 kts 87°
2026-04-29 14:27 23.25272 78.05628 36758 ft 504 kts 88°
2026-04-29 14:28 23.24696 78.18261 36762 ft 503 kts 88°
2026-04-29 14:28 23.24405 78.24627 36760 ft 503 kts 88°
2026-04-29 14:29 23.24057 78.32215 36763 ft 503 kts 88°
2026-04-29 14:29 23.23701 78.39818 36761 ft 503 kts 88°
2026-04-29 14:30 23.23341 78.47414 36760 ft 503 kts 88°
2026-04-29 14:30 23.22985 78.54966 36763 ft 503 kts 88°
2026-04-29 14:31 23.22624 78.62565 36765 ft 503 kts 88°
2026-04-29 14:31 23.22252 78.70152 36771 ft 502 kts 88°
2026-04-29 14:32 23.21915 78.77736 36768 ft 501 kts 86°
2026-04-29 14:32 23.21808 78.85288 36768 ft 499 kts 85°
2026-04-29 14:33 23.21778 78.92836 36765 ft 499 kts 85°
2026-04-29 14:33 23.21697 79.00389 36765 ft 500 kts 85°
2026-04-29 14:34 23.21571 79.07941 36768 ft 500 kts 85°
2026-04-29 14:34 23.21435 79.15498 36762 ft 500 kts 85°
2026-04-29 14:35 23.21309 79.23050 36762 ft 500 kts 85°
2026-04-29 14:35 23.21180 79.30606 36761 ft 500 kts 86°
2026-04-29 14:36 23.21042 79.38166 36763 ft 500 kts 86°
2026-04-29 14:36 23.20902 79.45712 36762 ft 500 kts 86°
2026-04-29 14:37 23.20772 79.53202 36760 ft 499 kts 86°
2026-04-29 14:37 23.20600 79.60742 36759 ft 499 kts 87°
2026-04-29 14:38 23.20274 79.68276 36755 ft 499 kts 88°
2026-04-29 14:38 23.19900 79.75802 36758 ft 498 kts 88°
2026-04-29 14:39 23.19563 79.83302 36729 ft 490 kts 88°
2026-04-29 14:39 23.19254 79.90586 36724 ft 479 kts 88°
2026-04-29 14:40 23.18951 79.97796 36721 ft 477 kts 88°
2026-04-29 14:40 23.18632 80.04984 36727 ft 476 kts 88°
2026-04-29 14:41 23.18287 80.12168 36728 ft 476 kts 88°
2026-04-29 14:41 23.17916 80.19344 36737 ft 476 kts 88°
2026-04-29 14:42 23.17540 80.26521 36733 ft 476 kts 89°
2026-04-29 14:42 23.17159 80.33695 36744 ft 475 kts 89°
2026-04-29 14:43 23.16782 80.40861 36747 ft 475 kts 89°
2026-04-29 14:43 23.16404 80.48014 36750 ft 474 kts 89°
2026-04-29 14:44 23.16024 80.55168 36747 ft 474 kts 89°
2026-04-29 14:44 23.15640 80.62313 36742 ft 473 kts 89°
2026-04-29 14:45 23.15245 80.69446 36746 ft 473 kts 89°
2026-04-29 14:45 23.14849 80.76577 36742 ft 473 kts 89°
2026-04-29 14:46 23.14458 80.83684 36733 ft 479 kts 89°
2026-04-29 14:46 23.14075 80.90981 36729 ft 486 kts 89°
2026-04-29 14:47 23.13680 80.98326 36725 ft 487 kts 89°
2026-04-29 14:47 23.13271 81.05673 36722 ft 487 kts 90°
2026-04-29 14:48 23.12854 81.13012 36718 ft 486 kts 90°
2026-04-29 14:48 23.12441 81.20339 36728 ft 487 kts 90°
2026-04-29 14:49 23.12030 81.27682 36728 ft 487 kts 90°
2026-04-29 14:49 23.11618 81.35025 36729 ft 487 kts 90°
2026-04-29 14:50 23.11196 81.42369 36727 ft 487 kts 90°
2026-04-29 14:50 23.10760 81.49698 36725 ft 486 kts 90°
2026-04-29 14:51 23.10325 81.57024 36721 ft 486 kts 90°
2026-04-29 14:51 23.09889 81.64353 36716 ft 485 kts 90°
2026-04-29 14:52 23.09457 81.71664 36712 ft 484 kts 89°
2026-04-29 14:52 23.09708 81.75269 36702 ft 475 kts 71°
2026-04-29 14:52 23.10914 81.78555 36700 ft 466 kts 58°
2026-04-29 14:53 23.13712 81.84917 36687 ft 471 kts 69°
2026-04-29 14:53 23.14818 81.91965 36684 ft 479 kts 86°
2026-04-29 14:54 23.14451 81.99210 36681 ft 481 kts 91°
2026-04-29 14:54 23.14007 82.06458 36685 ft 481 kts 91°
2026-04-29 14:55 23.13575 82.13702 36691 ft 480 kts 91°
2026-04-29 14:55 23.13145 82.20947 36742 ft 482 kts 91°
2026-04-29 14:55 23.12978 82.24607 36602 ft 488 kts 90°
2026-04-29 14:56 23.12838 82.28287 36689 ft 487 kts 90°
2026-04-29 14:56 23.12564 82.35662 36688 ft 490 kts 91°
2026-04-29 14:57 23.12249 82.43049 36696 ft 491 kts 91°
2026-04-29 14:57 23.11911 82.50485 36702 ft 492 kts 91°
2026-04-29 14:58 23.11577 82.57927 36701 ft 494 kts 91°
2026-04-29 14:58 23.11237 82.65378 36710 ft 495 kts 91°
2026-04-29 14:59 23.10892 82.72849 36719 ft 496 kts 91°
2026-04-29 14:59 23.10549 82.80332 36722 ft 497 kts 91°
2026-04-29 15:00 23.10205 82.87820 36908 ft 493 kts 91°
2026-04-29 15:00 23.10033 82.91512 37119 ft 489 kts 91°
2026-04-29 15:00 23.09859 82.95205 37161 ft 489 kts 91°
2026-04-29 15:01 23.09514 83.02520 37279 ft 487 kts 91°
2026-04-29 15:01 23.09168 83.09750 37257 ft 465 kts 91°
2026-04-29 15:01 23.08998 83.13201 37139 ft 451 kts 91°
2026-04-29 15:02 23.08829 83.16559 36953 ft 439 kts 91°
2026-04-29 15:02 23.08661 83.19854 36753 ft 440 kts 91°
2026-04-29 15:02 23.08491 83.23200 36766 ft 446 kts 91°
2026-04-29 15:03 23.08153 83.30032 36778 ft 458 kts 91°
2026-04-29 15:03 23.07809 83.37013 36785 ft 467 kts 91°
2026-04-29 15:04 23.07460 83.44100 36794 ft 473 kts 91°
2026-04-29 15:04 23.07104 83.51258 36803 ft 477 kts 92°
2026-04-29 15:05 23.06723 83.58466 36804 ft 479 kts 92°
2026-04-29 15:05 23.06338 83.65702 36811 ft 481 kts 92°
2026-04-29 15:06 23.05956 83.72962 36820 ft 483 kts 92°
2026-04-29 15:06 23.05578 83.80266 36824 ft 485 kts 92°
2026-04-29 15:07 23.05195 83.87558 36825 ft 481 kts 92°
2026-04-29 15:07 23.04803 83.94819 36825 ft 482 kts 92°
2026-04-29 15:08 23.04415 84.01933 36826 ft 457 kts 92°
2026-04-29 15:08 23.04037 84.08821 36831 ft 457 kts 91°
2026-04-29 15:09 23.03651 84.15719 36833 ft 458 kts 92°
2026-04-29 15:09 23.03176 84.22613 36833 ft 458 kts 93°
2026-04-29 15:10 23.02652 84.29464 36832 ft 458 kts 93°
2026-04-29 15:10 23.02125 84.36404 36836 ft 458 kts 93°
2026-04-29 15:11 23.01623 84.43261 36838 ft 459 kts 92°
2026-04-29 15:11 23.01124 84.50158 36837 ft 458 kts 92°
2026-04-29 15:12 23.00620 84.57050 36839 ft 459 kts 93°
2026-04-29 15:12 23.00106 84.63954 36837 ft 459 kts 93°
2026-04-29 15:13 22.99590 84.70855 36842 ft 459 kts 93°
2026-04-29 15:13 22.99066 84.77758 36842 ft 459 kts 93°
2026-04-29 15:14 22.98540 84.84654 36844 ft 459 kts 93°
2026-04-29 15:14 22.98099 84.90430 36846 ft 459 kts 94°
2026-04-29 15:15 22.97568 84.97332 36847 ft 459 kts 94°
2026-04-29 15:15 22.96957 85.05346 36848 ft 459 kts 94°
2026-04-29 15:16 22.96516 85.11120 36852 ft 458 kts 94°
2026-04-29 15:16 22.95975 85.18014 36852 ft 459 kts 94°
2026-04-29 15:17 22.95436 85.24906 36856 ft 459 kts 94°
2026-04-29 15:17 22.94904 85.31813 36852 ft 459 kts 94°
2026-04-29 15:18 22.94372 85.38720 36851 ft 460 kts 94°
2026-04-29 15:18 22.93830 85.45639 36853 ft 461 kts 94°
2026-04-29 15:19 22.93282 85.52576 36851 ft 462 kts 95°
2026-04-29 15:19 22.92726 85.59526 36852 ft 463 kts 95°
2026-04-29 15:20 22.92168 85.66496 36850 ft 464 kts 95°
2026-04-29 15:20 22.91614 85.73484 36846 ft 465 kts 95°
2026-04-29 15:21 22.91045 85.80484 36845 ft 466 kts 95°
2026-04-29 15:21 22.90472 85.87443 36842 ft 467 kts 95°
2026-04-29 15:22 22.89891 85.94518 36842 ft 468 kts 95°
2026-04-29 15:22 22.89315 86.01502 36843 ft 469 kts 94°
2026-04-29 15:23 22.88744 86.08559 36843 ft 470 kts 94°
2026-04-29 15:23 22.88164 86.15631 36846 ft 471 kts 94°
2026-04-29 15:24 22.87635 86.22710 36842 ft 471 kts 92°
2026-04-29 15:24 22.87274 86.29810 36845 ft 472 kts 91°
2026-04-29 15:25 22.86938 86.36928 36846 ft 473 kts 92°
2026-04-29 15:25 22.86553 86.44056 36850 ft 474 kts 92°
2026-04-29 15:26 22.86144 86.51185 36848 ft 474 kts 92°
2026-04-29 15:26 22.85743 86.58328 36844 ft 475 kts 92°
2026-04-29 15:27 22.85335 86.65431 36841 ft 476 kts 93°
2026-04-29 15:27 22.84918 86.72604 36845 ft 477 kts 93°
2026-04-29 15:28 22.84509 86.79777 36834 ft 477 kts 93°
2026-04-29 15:28 22.84092 86.86966 36839 ft 478 kts 94°
2026-04-29 15:29 22.83675 86.94147 36837 ft 478 kts 94°
2026-04-29 15:30 22.82804 87.08572 36830 ft 480 kts 94°
2026-04-29 15:30 22.82373 87.15795 36831 ft 480 kts 94°
2026-04-29 15:31 22.81939 87.23026 36828 ft 481 kts 94°
2026-04-29 15:31 22.81501 87.30252 36827 ft 478 kts 95°
2026-04-29 15:31 22.81286 87.33782 36816 ft 462 kts 95°
2026-04-29 15:32 22.81080 87.37199 36826 ft 446 kts 95°
2026-04-29 15:32 22.80879 87.40503 36824 ft 435 kts 95°
2026-04-29 15:32 22.80679 87.43756 36826 ft 431 kts 95°
2026-04-29 15:33 22.80276 87.50221 36819 ft 429 kts 95°
2026-04-29 15:33 22.79865 87.56673 36823 ft 429 kts 95°
2026-04-29 15:34 22.79453 87.63116 36826 ft 429 kts 95°
2026-04-29 15:34 22.79047 87.69569 36826 ft 429 kts 95°
2026-04-29 15:35 22.78637 87.76011 36816 ft 429 kts 95°
2026-04-29 15:35 22.78225 87.82457 36823 ft 429 kts 95°
2026-04-29 15:36 22.77802 87.88900 36819 ft 429 kts 96°
2026-04-29 15:36 22.77381 87.95264 36819 ft 429 kts 96°
2026-04-29 15:37 22.77069 88.00039 36818 ft 429 kts 96°
2026-04-29 15:37 22.76671 88.06172 36824 ft 430 kts 96°
2026-04-29 15:38 22.76495 88.08886 36824 ft 430 kts 96°
2026-04-29 15:38 22.76242 88.12721 36836 ft 430 kts 96°
2026-04-29 15:39 22.75808 88.19195 36853 ft 431 kts 96°
2026-04-29 15:39 22.75372 88.25667 36866 ft 431 kts 96°
2026-04-29 15:40 22.74954 88.31840 36877 ft 432 kts 96°
2026-04-29 15:40 22.74665 88.38340 36883 ft 434 kts 88°
2026-04-29 15:41 22.75800 88.44759 36893 ft 437 kts 71°
2026-04-29 15:41 22.76052 88.45511 36891 ft 437 kts 69°
2026-04-29 15:42 22.77422 88.48687 36888 ft 437 kts 59°
2026-04-29 15:42 22.80579 88.54287 36868 ft 441 kts 58°
2026-04-29 15:42 22.81962 88.57273 36865 ft 448 kts 70°
2026-04-29 15:43 22.83044 88.60468 36858 ft 456 kts 70°
2026-04-29 15:43 22.85229 88.67045 36840 ft 471 kts 71°
2026-04-29 15:44 22.87459 88.73832 36817 ft 484 kts 71°
2026-04-29 15:44 22.89751 88.80791 36816 ft 493 kts 70°
2026-04-29 15:45 22.92084 88.87805 36814 ft 495 kts 68°
2026-04-29 15:45 22.93565 88.91174 36544 ft 497 kts 59°
2026-04-29 15:45 22.95431 88.94325 36217 ft 495 kts 56°
2026-04-29 15:45 22.97336 88.97442 35980 ft 497 kts 56°
2026-04-29 15:46 22.99242 89.00574 35279 ft 499 kts 56°
2026-04-29 15:46 23.01156 89.03738 34355 ft 503 kts 57°
2026-04-29 15:46 23.03073 89.06922 33352 ft 506 kts 57°
2026-04-29 15:46 23.04999 89.10123 32318 ft 508 kts 57°
2026-04-29 15:47 23.06938 89.13348 31190 ft 511 kts 57°
2026-04-29 15:47 23.08870 89.16553 30061 ft 513 kts 56°
2026-04-29 15:47 23.10841 89.19824 28695 ft 514 kts 56°
2026-04-29 15:47 23.12797 89.23071 27373 ft 514 kts 56°
2026-04-29 15:48 23.14756 89.26332 26041 ft 514 kts 56°
2026-04-29 15:48 23.16701 89.29572 24779 ft 511 kts 56°
2026-04-29 15:48 23.18621 89.32774 23692 ft 499 kts 55°
2026-04-29 15:48 23.20498 89.35905 22651 ft 486 kts 55°
2026-04-29 15:49 23.22291 89.38890 21798 ft 471 kts 55°
2026-04-29 15:49 23.24073 89.41856 20953 ft 466 kts 54°
2026-04-29 15:49 23.25836 89.44791 20225 ft 462 kts 54°
2026-04-29 15:49 23.27586 89.47708 19954 ft 460 kts 54°
2026-04-29 15:50 23.29329 89.50619 19791 ft 458 kts 54°
2026-04-29 15:50 23.31067 89.53524 19839 ft 459 kts 54°
2026-04-29 15:50 23.32803 89.56440 19835 ft 459 kts 55°
2026-04-29 15:50 23.34532 89.59362 19837 ft 459 kts 55°
2026-04-29 15:51 23.36248 89.62280 19839 ft 459 kts 55°
2026-04-29 15:51 23.37969 89.65209 19844 ft 459 kts 55°
2026-04-29 15:51 23.39685 89.68131 19843 ft 459 kts 55°
2026-04-29 15:51 23.41407 89.71057 19846 ft 459 kts 55°
2026-04-29 15:52 23.43128 89.73976 19847 ft 459 kts 55°
2026-04-29 15:52 23.44854 89.76905 19848 ft 459 kts 55°
2026-04-29 15:52 23.46572 89.79826 19843 ft 458 kts 55°
2026-04-29 15:52 23.48288 89.82751 19845 ft 458 kts 55°
2026-04-29 15:53 23.50001 89.85679 19848 ft 458 kts 55°
2026-04-29 15:53 23.51713 89.88604 19848 ft 458 kts 55°
2026-04-29 15:53 23.53428 89.91534 19849 ft 458 kts 55°
2026-04-29 15:53 23.55136 89.94455 19848 ft 458 kts 55°
2026-04-29 15:54 23.56846 89.97380 19852 ft 458 kts 55°
2026-04-29 15:54 23.58558 90.00304 19848 ft 457 kts 55°
2026-04-29 15:54 23.60270 90.03227 19845 ft 457 kts 55°
2026-04-29 15:54 23.61978 90.06146 19647 ft 455 kts 55°
2026-04-29 15:55 23.63665 90.09035 18961 ft 448 kts 54°
2026-04-29 15:55 23.65333 90.11891 18273 ft 444 kts 54°
2026-04-29 15:55 23.66967 90.14687 17538 ft 440 kts 54°
2026-04-29 15:55 23.68623 90.17528 16784 ft 436 kts 54°
2026-04-29 15:56 23.70216 90.20267 16078 ft 433 kts 55°
2026-04-29 15:56 23.71823 90.23032 15395 ft 430 kts 55°
2026-04-29 15:56 23.73409 90.25766 14999 ft 420 kts 55°
2026-04-29 15:56 23.74935 90.28392 14877 ft 403 kts 55°
2026-04-29 15:57 23.76440 90.30977 14019 ft 406 kts 56°
2026-04-29 15:57 23.77996 90.33610 12989 ft 416 kts 55°
2026-04-29 15:57 23.79567 90.36227 12619 ft 404 kts 55°
2026-04-29 15:57 23.81076 90.38736 12436 ft 388 kts 55°
2026-04-29 15:58 23.82534 90.41155 12186 ft 375 kts 55°
2026-04-29 15:58 23.83951 90.43499 11922 ft 364 kts 55°
2026-04-29 15:58 23.85329 90.45771 11631 ft 355 kts 55°
2026-04-29 15:58 23.86680 90.47988 11346 ft 346 kts 55°
2026-04-29 15:59 23.87999 90.50144 11105 ft 337 kts 55°
2026-04-29 15:59 23.89288 90.52247 10868 ft 329 kts 55°
2026-04-29 15:59 23.90552 90.54301 10642 ft 321 kts 55°
2026-04-29 15:59 23.91787 90.56304 10405 ft 315 kts 55°
2026-04-29 16:00 23.92612 90.57637 10248 ft 313 kts 55°
2026-04-29 16:00 23.94011 90.59425 10026 ft 308 kts 36°
2026-04-29 16:00 23.96567 90.60580 9621 ft 300 kts
2026-04-29 16:00 23.97967 90.60698 9328 ft 299 kts
2026-04-29 16:01 24.00042 90.60781 8889 ft 298 kts 359°
2026-04-29 16:01 24.02086 90.60717 8649 ft 287 kts 345°
2026-04-29 16:01 24.03915 90.59964 8332 ft 279 kts 331°
2026-04-29 16:01 24.05642 90.59009 7938 ft 278 kts 329°
2026-04-29 16:02 24.07329 90.57986 7534 ft 275 kts 319°
2026-04-29 16:02 24.08588 90.56471 7144 ft 268 kts 301°
2026-04-29 16:02 24.09627 90.54784 6753 ft 267 kts 299°
2026-04-29 16:02 24.10639 90.53102 6492 ft 260 kts 299°
2026-04-29 16:03 24.11622 90.51476 6237 ft 254 kts 299°
2026-04-29 16:03 24.12599 90.49874 6014 ft 252 kts 299°
2026-04-29 16:03 24.13577 90.48275 6014 ft 254 kts 299°
2026-04-29 16:03 24.14561 90.46666 6010 ft 254 kts 300°
2026-04-29 16:04 24.15543 90.45056 6014 ft 255 kts 299°
2026-04-29 16:04 24.16251 90.43346 6021 ft 247 kts 275°
2026-04-29 16:04 24.16100 90.41508 6023 ft 239 kts 246°
2026-04-29 16:04 24.15404 90.39889 6006 ft 238 kts 240°
2026-04-29 16:05 24.14637 90.38314 5744 ft 231 kts 239°
2026-04-29 16:05 24.13886 90.36795 5483 ft 222 kts 239°
2026-04-29 16:05 24.13146 90.35293 5132 ft 220 kts 239°
2026-04-29 16:05 24.12431 90.33820 4833 ft 218 kts 239°
2026-04-29 16:06 24.11731 90.32356 4422 ft 216 kts 239°
2026-04-29 16:06 24.11008 90.30944 3951 ft 214 kts 229°
2026-04-29 16:06 24.09821 90.30048 3567 ft 210 kts 197°
2026-04-29 16:06 24.08381 90.29690 3116 ft 215 kts 190°
2026-04-29 16:07 24.06901 90.29419 3001 ft 217 kts 189°
2026-04-29 16:07 24.05415 90.29152 3008 ft 216 kts 189°
2026-04-29 16:07 24.03930 90.28886 3006 ft 216 kts 189°
2026-04-29 16:07 24.02444 90.28622 3010 ft 217 kts 189°
2026-04-29 16:08 24.00974 90.28366 3006 ft 212 kts 189°
2026-04-29 16:08 23.99517 90.28115 3006 ft 212 kts 189°
2026-04-29 16:08 23.98052 90.28035 2958 ft 211 kts 175°
2026-04-29 16:08 23.96685 90.28550 2800 ft 207 kts 149°
2026-04-29 16:09 23.95680 90.29645 2678 ft 202 kts 133°
2026-04-29 16:09 23.94813 90.30813 2555 ft 194 kts 133°
2026-04-29 16:09 23.94000 90.31918 2447 ft 179 kts 133°
2026-04-29 16:09 23.93142 90.32765 2341 ft 156 kts 146°
2026-04-29 16:10 23.92315 90.33432 2245 ft 138 kts 147°
2026-04-29 16:10 23.91550 90.34044 2115 ft 135 kts 147°
2026-04-29 16:10 23.90793 90.34649 1791 ft 136 kts 144°
2026-04-29 16:10 23.90023 90.35265 1431 ft 139 kts 144°
2026-04-29 16:11 23.89236 90.35893 1059 ft 140 kts 143°
2026-04-29 16:11 23.88478 90.36491 887 ft 131 kts 144°
2026-04-29 16:11 23.87737 90.37060 662 ft 131 kts 140°
2026-04-29 16:11 23.87016 90.37670 406 ft 131 kts 143°
2026-04-29 16:12 23.86273 90.38240 247 ft 131 kts 141°
2026-04-29 16:12 23.85779 90.38636 147 ft 131 kts 142°
2026-04-29 16:12 23.84861 90.39362 38 ft 91 kts 144°
2026-04-29 16:12 23.84585 90.39581 37 ft 23 kts 144°
2026-04-29 16:13 23.84471 90.39707 36 ft 21 kts 129°
2026-04-29 16:13 23.84414 90.39847 34 ft 15 kts 98°
2026-04-29 16:13 23.84452 90.39957 36 ft 17 kts 54°
2026-04-29 16:13 23.84518 90.40054 36 ft 13 kts 54°
2026-04-29 16:14 23.84549 90.40102 36 ft 6 kts 53°
2026-04-29 16:14 23.84571 90.40134 36 ft 5 kts 53°
2026-04-29 16:14 23.84591 90.40163 35 ft 6 kts 53°
2026-04-29 16:14 23.84627 90.40216 36 ft 10 kts 54°
2026-04-29 16:15 23.84671 90.40282 36 ft 12 kts 53°
2026-04-29 16:15 23.84718 90.40322 36 ft 8 kts 13°
2026-04-29 16:15 23.84762 90.40344 36 ft 6 kts 47°
2026-04-29 16:15 23.84782 90.40375 35 ft 4 kts 54°
2026-04-29 16:16 23.84794 90.40392 36 ft 0 kts 54°